Abilene, TX

10:54 PM CDT on September 28, 2016 (GMT -0500)
Dyess Air Force Base

Weather History for KDYS - September, 2013

Change the Weather History Date:

Monday, September 23, 2013

  Actual Average Record
Temperature  
Mean Temperature 70 °F -  
Max Temperature 87 °F 84 °F 98 °F (2005)
Min Temperature 55 °F 61 °F 47 °F (2011)
Cooling Degree Days 6    
Growing Degree Days 20 (Base 50)    
Moisture  
Dew Point 53 °F    
Average Humidity 55    
Maximum Humidity 85    
Minimum Humidity 33    
Precipitation  
Precipitation 0.00 in - - ()
Sea Level Pressure  
Sea Level Pressure 29.71 in    
Wind  
Wind Speed 9 mph (South)    
Max Wind Speed 18 mph    
Max Gust Speed 26 mph    
Visibility 10 miles    
Events      
Averages and records for this station are not official NWS values.
T = Trace of Precipitation, MM = Missing Value Source: NWS Daily Summary

Daily Weather History Graph

Daily Weather History Graph

Search for Another Location

Airport or City:

Trip Planner

Search our weather history database for the weather conditions in past years. The results will help you decide how hot, cold, wet, or windy it might be!

Date:

Astronomy

Sep. 23, 2013 Rise Set
Actual Time 7:28 AM CDT 7:34 PM CDT
Civil Twilight 7:03 AM CDT 7:58 PM CDT
Nautical Twilight 6:35 AM CDT 8:27 PM CDT
Astronomical Twilight 6:06 AM CDT 8:56 PM CDT
Moon 10:23 PM CDT (9/23) 11:33 AM CDT (9/23)
Length of Visible Light 12h 54m
Length of Day
12h 05m
Waning Gibbous, 81% of the Moon is Illuminated
Sep 23
Waning Gibbous
Sep 26
Last Quarter
Oct 4
New
Oct 11
First Quarter
Oct 18
Full

Hourly Weather History & Observations

Time (CDT) Temp. Heat Index Dew Point Humidity Pressure Visibility Wind Dir Wind Speed Gust Speed Precip Events Conditions
12:58 AM 57.0 °F - 51.1 °F 81% 29.76 in 10.0 mi SE 2.3 mph - N/A   Clear
1:58 AM 58.8 °F - 50.5 °F 74% 29.73 in 10.0 mi South 8.1 mph - N/A   Clear
2:58 AM 60.6 °F - 50.0 °F 68% 29.74 in 10.0 mi South 8.1 mph - N/A   Clear
3:58 AM 57.4 °F - 51.6 °F 81% 29.72 in 10.0 mi South 5.8 mph - N/A   Clear
4:58 AM 56.3 °F - 51.1 °F 83% 29.71 in 10.0 mi South 5.8 mph - N/A   Clear
5:58 AM 57.9 °F - 50.9 °F 77% 29.73 in 10.0 mi South 5.8 mph - N/A   Clear
6:58 AM 55.0 °F - 50.7 °F 85% 29.74 in 10.0 mi South 2.3 mph - N/A   Clear
7:58 AM 57.9 °F - 50.7 °F 77% 29.74 in 10.0 mi SSE 10.4 mph - N/A   Clear
8:58 AM 64.4 °F - 51.8 °F 64% 29.75 in 10.0 mi SSE 12.7 mph - N/A   Clear
9:58 AM 70.5 °F - 50.2 °F 48% 29.75 in 10.0 mi South 17.3 mph - N/A   Clear
10:58 AM 75.6 °F - 48.6 °F 38% 29.74 in 10.0 mi South 18.4 mph 26.5 mph N/A   Clear
11:58 AM 79.0 °F - 49.6 °F 36% 29.73 in 10.0 mi South 18.4 mph - N/A   Clear
12:58 PM 80.6 °F - 50.4 °F 35% 29.72 in 10.0 mi SSW 17.3 mph 23.0 mph N/A   Clear
1:58 PM 83.5 °F 82.1 °F 53.2 °F 35% 29.69 in 10.0 mi South 16.1 mph 21.9 mph N/A   Clear
2:58 PM 85.5 °F 83.7 °F 53.2 °F 33% 29.66 in 10.0 mi South 12.7 mph 21.9 mph N/A   Clear
3:58 PM 85.8 °F 84.3 °F 55.2 °F 35% 29.66 in 10.0 mi South 15.0 mph - N/A   Clear
4:58 PM 86.7 °F 85.1 °F 55.2 °F 34% 29.65 in 10.0 mi South 12.7 mph 18.4 mph N/A   Clear
5:58 PM 86.0 °F 84.7 °F 55.8 °F 36% 29.66 in 10.0 mi South 13.8 mph - N/A   Clear
6:58 PM 84.0 °F 83.2 °F 56.5 °F 39% 29.66 in 10.0 mi SSE 11.5 mph - N/A   Clear
7:58 PM 77.4 °F - 58.1 °F 51% 29.68 in 10.0 mi SSE 9.2 mph - N/A   Clear
8:58 PM 77.4 °F - 57.6 °F 50% 29.68 in 10.0 mi South 11.5 mph - N/A   Clear
9:58 PM 77.0 °F - 57.0 °F 50% 29.69 in 10.0 mi South 13.8 mph - N/A   Clear
10:58 PM 74.3 °F - 57.0 °F 55% 29.71 in 10.0 mi South 13.8 mph - N/A   Clear
11:58 PM 71.1 °F - 57.4 °F 62% 29.73 in 10.0 mi SSE 3.5 mph - N/A   Clear